Location: Buena Vista
(10.5833°N, 67.0667°W)
Time: 14:29:28
(UTC+00:00)

Daily predictions for brighter satellites

Satellite Brightness Start Highest point End
(mag) Time Altitude Azimuth Time Altitude Azimuth Time Altitude Azimuth
CZ-2C R/B 2.7 22:17:21 10° N 22:22:30 86° WNW 22:27:44 10° SSW
Cosmos 1515 Rocket 3.6 22:21:36 10° S 22:26:00 60° E 22:30:22 10° NNE
H-2A R/B 3.8 22:25:30 10° ENE 22:28:04 15° E 22:30:37 10° SE
GPS 2-15 Rocket1 4.3 22:24:33 10° NW 22:28:34 28° N 22:32:34 10° ENE
NOSS 3-3 (A) 3.8 22:24:29 10° SSW 22:29:50 76° WNW 22:35:24 10° NNE
NOSS 3-3 (C) 3.8 22:24:34 10° SSW 22:29:56 77° WNW 22:35:31 10° NNE
USA 229 DEB 4.1 22:22:52 10° NNW 22:30:33 63° ENE 22:38:23 10° SE
PSLV R/B 3.6 22:26:59 10° SSE 22:30:36 63° ENE 22:34:14 10° N
ARIANE 2 DEB 3.6 22:27:51 10° WSW 22:30:39 54° S 22:34:47 10° E
USA 229 4.1 22:22:58 10° NNW 22:30:39 62° ENE 22:38:27 10° SE
Meteor 2-21 Rocket 4.4 22:25:19 10° N 22:31:20 69° E 22:37:19 10° SSE
SL-27 R/B 4.2 22:30:06 10° SE 22:32:06 15° E 22:34:08 10° ENE
Cosmos 1666 2.8 22:30:13 10° N 22:33:49 50° E 22:37:25 10° SSE
Cosmos 482 Debris 4.4 22:40:09 10° SW 22:42:36 47° NW 22:46:17 10° NNE
Cosmos 2360 4.4 22:38:05 10° NNW 22:43:47 78° WSW 22:49:28 10° S
Aurora 2 Rocket 4.0 22:39:47 10° NW 22:44:09 32° NNE 22:49:21 13° E
Atlas Centaur 2 3.8 22:49:55 10° WSW 22:52:21 17° SSW 22:54:47 10° S
Sakura Rocket 3.6 22:46:24 10° WNW 22:52:51 79° SSW 22:57:30 10° ESE
YAOGAN 1 4.0 22:50:29 10° ESE 22:53:16 17° ENE 22:53:39 17° ENE
GMS 1 Rocket B 4.3 22:50:36 10° NW 22:54:27 56° NNE 22:57:55 14° ESE
Gbstr 26 Del rocket 3.9 22:53:01 10° SSW 22:59:57 74° SE 23:04:22 17° NE
Maqsat-H 3.8 22:57:41 10° WSW 23:01:49 39° S 23:14:53 10° ESE
Cosmos 1356 Rocket 4.3 23:01:10 14° NNE 23:04:10 28° E 23:07:51 10° SE
Cosmos 1633 Rocket 3.8 23:04:05 10° NNW 23:08:21 54° W 23:12:39 10° S
Meteor 1-11 Rocket 4.1 23:05:16 10° NNE 23:10:43 44° E 23:16:15 10° SSE
Hubble Space Telescope 2.9 23:11:47 10° S 23:14:09 15° SSE 23:15:19 13° SE
Okean O Rocket 1.6 23:12:14 10° SSE 23:16:40 90° E 23:21:06 10° NNW
ARIANE 5 R/B 2.9 23:16:40 10° SW 23:18:07 17° S 23:18:31 16° SSE
Cosmos 1980 Rocket 2.5 23:13:18 10° NNW 23:18:51 69° WSW 23:24:23 10° S
ARIANE 3 DEB 4.0 23:19:31 10° SSW 23:21:01 15° SSE 23:21:09 15° SSE
Cosmos 1544 2.9 23:18:03 10° N 23:21:40 83° E 23:25:18 10° S
ARGOS 3.2 23:16:46 10° S 23:22:11 82° WSW 23:27:36 10° NNW
GPS 2-12 Rocket1 3.8 23:21:43 10° W 23:25:54 37° NNW 23:26:54 33° NNE
Meteor 1-19 Rocket 4.3 23:22:18 10° S 23:28:16 67° E 23:32:35 19° NNE
Okean 1 3.2 23:24:51 10° S 23:28:51 69° E 23:29:44 50° NNE
BREEZE-M DEB (TANK) 3.4 23:29:04 10° WSW 23:31:10 34° NW 23:31:38 32° NNW
CZ-4C R/B 3.2 23:23:10 10° N 23:31:21 55° ENE 23:39:49 10° SE
COSMOS 2487 4.1 23:29:19 10° S 23:30:39 21° SSE 23:30:39 21° SSE
H-2A R/B 4.0 23:27:51 10° SSW 23:32:26 30° W 23:36:55 10° NW
Cosmos 1933 Rocket 3.4 23:29:34 10° N 23:33:53 87° E 23:38:13 10° S
SWIFT 2.2 23:32:32 10° WNW 23:36:44 65° NNE 23:36:44 65° NNE
Spot 2 4.3 23:35:46 10° SSE 23:40:44 70° ENE 23:45:07 14° N
Cosmos 2266 Rocket 4.4 23:36:22 10° NNW 23:42:40 64° W 23:48:58 10° S
TOS 3.6 23:45:39 10° W 23:48:11 66° NNW 23:48:11 66° NNW
Cosmos 2150 Rocket 3.8 23:44:55 10° N 23:50:09 78° ENE 23:55:28 10° SSE
H-2A R/B 4.0 23:48:34 10° S 23:50:09 24° S 23:50:09 24° S
Cosmos 158 Rocket 3.7 23:50:02 10° SSW 23:54:45 84° S 23:54:45 84° S
